This is the latest recevied weather packets stored in our database for station/object W6JCZ-13. If no packets are shown the sender has not sent any weather packets the latest 10 day(s).
| Time | Temp. | Humidity | Pressure | Rain* | Wind** | Luminosity | Snow |
|---|---|---|---|---|---|---|---|
| 1787841016 | 16.67° C | 78% | 1011.6 hPa | 0 mm | - | - | - |
| 1787840417 | 15.56° C | 80% | 1011.4 hPa | 0 mm | - | - | - |
| 1787839817 | 15° C | 80% | 1011.3 hPa | 0 mm | - | - | - |
| 1787839216 | 15° C | 80% | 1011.1 hPa | 0 mm | - | - | - |
| 1787838617 | 15° C | 80% | 1010.8 hPa | 0 mm | - | - | - |
| 1787838017 | 15° C | 79% | 1010.8 hPa | 0 mm | - | - | - |
| 1787837417 | 15° C | 79% | 1010.8 hPa | 0 mm | - | - | - |
| 1787836817 | 15° C | 79% | 1010.7 hPa | 0 mm | - | - | - |
| 1787836216 | 15° C | 79% | 1010.8 hPa | 0 mm | - | - | - |
| 1787835617 | 15° C | 79% | 1010.7 hPa | 0 mm | - | - | - |
| 1787835016 | 15.56° C | 78% | 1010.8 hPa | 0 mm | - | - | - |
| 1787834416 | 15.56° C | 78% | 1010.7 hPa | 0 mm | - | - | - |
| 1787833816 | 15.56° C | 77% | 1010.6 hPa | 0 mm | - | - | - |
| 1787833217 | 16.11° C | 77% | 1010.7 hPa | 0 mm | - | - | - |
| 1787832616 | 16.11° C | 76% | 1010.6 hPa | 0 mm | - | - | - |
| 1787832016 | 16.11° C | 76% | 1010.6 hPa | 0 mm | - | - | - |
| 1787831416 | 16.11° C | 75% | 1010.5 hPa | 0 mm | - | - | - |
| 1787830816 | 16.11° C | 75% | 1010.5 hPa | 0 mm | - | - | - |
| 1787830216 | 16.67° C | 74% | 1010.4 hPa | 0 mm | - | - | - |
| 1787829616 | 16.67° C | 73% | 1010.4 hPa | 0 mm | - | - | - |
| 1787829016 | 16.67° C | 72% | 1010.5 hPa | 0 mm | - | - | - |
| 1787828416 | 16.67° C | 72% | 1010.3 hPa | 0 mm | - | - | - |
| 1787827816 | 16.67° C | 74% | 1010.3 hPa | 0 mm | - | - | - |
| 1787827216 | 17.22° C | 74% | 1010.1 hPa | 0 mm | - | - | - |
| 1787826616 | 17.22° C | 73% | 1010.1 hPa | 0 mm | - | - | - |
* Rain latest hour (hover to see other rain measurements)
** Current wind speed in m/s (hover to see current wind gust speed)